Location: Haram ta Haram Freeway
(35.0583°N, 51.4202°E)
Time: 14:42:19
(UTC+04:30)

CAS-4A - Pass Details

Date: 12 July 2020
Orbit: 528 x 545 km, 43.0° (Epoch: 02 August)

Event Time Altitude Azimuth Distance (km) Brightness Sun altitude
Exits shadow 03:46:31 17° 304° (NW) 1,411 ? -22.0°
Maximum altitude 03:48:50 28° 352° (N) 1,032 ? -21.7°
Drops below altitude 10° 03:52:24 10° 53° (NE) 1,785 ? -21.2°
Sets 03:54:52 0° 65° (ENE) 2,673 ? -20.9°
